Regional Weather Roundup
Issued by NWS Charleston, SC

Current Version | Previous Version | Graphics & Text | Print | Product List | Glossary On
Versions: 1 2 3 4 5 6 7 8 9 10 11 12 13 14 15 16 17 18 19 20 21 22 23 24 25 26 27 28 29 30 31 32 33 34 35 36 37 38 39 40 41 42 43 44 45 46 47 48 49 50
000
ASUS42 KCHS 041911
RWRCHS

REGIONAL WEATHER ROUNDUP
NATIONAL WEATHER SERVICE CHARLESTON SC
200 PM EST WED MAR 04 2015

NOTE: "FAIR" INDICATES FEW OR NO CLOUDS BELOW 12,000 FEET WITH NO
SIGNIFICANT WEATHER AND/OR OBSTRUCTIONS TO VISIBILITY.

NOT ALL STATIONS ARE QUALITY CONTROLLED BY THE NATIONAL
WEATHER SERVICE. USE DATA WITH CAUTION...ESPECIALLY
DEWPOINT OBSERVATIONS.

SCZ027-030-031-034>040-042>050-042000-
...SOUTHEAST SOUTH CAROLINA...

CITY           SKY/WX    TMP DP  RH WIND       PRES   REMARKS
N CHARLESTON   MOSUNNY   80  60  50 SW20      30.03F
WATERFRONT PRK   N/A     70 N/A N/A SW16G23     N/A
MOUNT PLEASANT FAIR      75  63  64 S14G29    30.04F
PINOPOLIS      NOT AVBL
MONCKS CORNER  MOCLDY    82  61  47 SW13G23   30.00F
SUMMERVILLE    FAIR      81  63  54 SW10G18   30.02F
BEAUFORT MCAS  PTSUNNY   80  67  64 S13       30.03F
BEAUFORT ARPT  FAIR      73  64  73 S3G20     30.04F
HILTON HEAD IS SUNNY     75  64  69 S10       30.07F
WALTERBORO     MOCLDY    81  63  54 W14G20    30.02F
ALLENDALE      FAIR      81  61  50 S8G17     30.01F

...SOUTHERN MIDLANDS AND PEE DEE...

CITY           SKY/WX    TMP DP  RH WIND       PRES   REMARKS
GEORGETOWN     NOT AVBL
KINGSTREE      NOT AVBL
ORANGEBURG     PTSUNNY   79  58  48 SW22G29   29.99F
BARNWELL       FAIR      81  61  50 W17G28    30.00F
AIKEN          MOCLDY    77  59  53 SW21G31   30.04F
MANNING        MOCLDY    79  30  17 SW15G21   30.00F
COLUMBIA       MOSUNNY   81  58  45 W26G33    29.97F
SUMTER         NOT AVBL
FLORENCE       PTSUNNY   78  60  53 SW23G32   29.98F
MYRTLE BEACH   MOSUNNY   72  61  68 S18       30.04F
N MYRTLE BEACH MOSUNNY   64  58  80 SW23G29   30.01F

$$

GAZ063-065-086>088-099>101-113>116-118-119-134>141-150-042000-
...SOUTHEAST GEORGIA...

CITY           SKY/WX    TMP DP  RH WIND       PRES   REMARKS
SAVANNAH ARPT  PTSUNNY   83  59  44 W17       30.04F
HUNTER AAF     NOT AVBL
FORT STEWART   NOT AVBL
STATESBORO     CLOUDY    80  60  50 W10G18    30.03F
SYLVANIA       PTCLDY    81  62  51 SW10G20   30.04F
CLAXTON        FAIR      79  63  57 SW7       30.05F

...CSRA...CENTRAL AND FAR SOUTHEAST GEORGIA...

CITY           SKY/WX    TMP DP  RH WIND       PRES   REMARKS
THOMSON        MOSUNNY   77  64  65 SW8G24    30.05F
AUGUSTA-BUSH   PTSUNNY   78  59  51 W20G31    30.00F
AUGUSTA-DANIEL PTSUNNY   76  60  57 W13G23    30.01F
SWAINSBORO     MOCLDY    81  46  30 W12G24    30.04F
VIDALIA        MOSUNNY   81  59  47 SW17G24   30.05F
EASTMAN        MOCLDY    80  62  53 SW16G25   30.07F
HAZLEHURST     FAIR      82  62  50 SW9G17    30.04F
ALMA           PTSUNNY   81  58  45 SW16G24   30.04F
WAYCROSS       MOSUNNY   86  64  47 SW13G24   30.05F
JESUP          FAIR      84  63  48 SW12G25   30.05F
BAXLEY         PTSUNNY   81  61  50 SW9G17    30.04F
BRUNSWICK      PTSUNNY   82  55  39 SW16      30.06F
SAINT SIMONS   MOSUNNY   70  62  76 S12G21    30.06F

$$

SCZ027-028-034-036>038-045-046-048>050-GAZ119-141-042000-
...LAKE AND SUPPLEMENTAL COASTAL OBSERVATIONS...

STATION/POSITION TIME  TEMP    WIND        PRES    WAVE   SWELL
                       AIR SEA DIR/SP/G            HT/PER HT/PER/DIR
                 (UTC) (F)     (DEG/KT/KT) (MB)    (FT/S) (FT/S/D)
UPR LAKE MARION  NOT AVBL
WINYAH BAY       1745   74     210/ 11     1017.0
LAKE MURRAY      1800   70     240/ 14/ 19 1015.6F
ACE BASIN NERRS  1745   75     180/  2     1018.0
FORT PULASKI     1800   71 51  190/  9/ 16 1018.8F
SAPELO ISLAND    1800   77     160/ 13     1018.0F

$$

ANZ835-935-AMZ111-154-330-350-352-354-370-450-454-472-042000-
...C-MAN AND BUOY OBSERVATIONS...

STATION/POSITION TIME  TEMP    WIND        PRES    WAVE   SWELL
                       AIR SEA DIR/SP/G            HT/PER HT/PER/DIR
                 (UTC) (F)     (DEG/KT/KT) (MB)    (FT/S) (FT/S/D)
BUOY 41004       1850   69 69  220/ 16/ 19 1017.8F   5/ 6   2/ 9
BUOY 41008       1850   59 54  180/ 10/ 12 1018.3F   3/ 8   2/ 90/ 8
FOLLY BEACH CMAN 1800   57     220/ 12/ 15 1019.2F
CAPERS NEARSHORE 1800   53     240/  8/ 10   N/A
FRIPP NEARSHORE  1800   55     190/ 10/ 12 1018.5F


STATION/POSITION TIME  TEMP    WIND        PRES    WAVE   SWELL
                       AIR SEA DIR/SP/G            HT/PER HT/PER/DIR
                 (UTC) (F)     (DEG/KT/KT) (MB)    (FT/S) (FT/S/D)
5E ST. MARYS GA  1821      56                N/A     2/ 9
FRYING PAN BUOY  1850   67 62  220/ 16/ 17 1018.4F   5/ 6   3/120/ 9
BUOY 41025       NOT AVBL
CAPE LOOKOUT NC  1800   59     230/ 11/ 14 1017.3F
BUOY 41002       1850   73 73  210/ 17/ 19 1021.2F   5/10   3/130/10
BUOY 41010       1820   74 75  170/ 14/ 17 1021.4F
ST AUGUSTINE FL  1900   64     170/  9/ 10 1019.4F


$$


USA.gov is the U.S. government's official web portal to all federal, state and local government web resources and services.